Home > Weather > Vista > Past weeks

Flag for USA Past Weather in Vista, California, USA — Yesterday and Last 2 Weeks

Now
68 °F

Sunny.


Feels Like: 68 °F
Forecast: 60 / 74 °F
Wind: 8 mph from West

Location: McClellan-Palomar Airport

Current Time: Aug 25, 2016 at 6:46:07 PM

Latest Report: Aug 25, 2016 at 5:53 PM


Visibility: 10 mi

Pressure: 29.90 "Hg

Humidity: 76%

Dew Point: 60 °F

Location of VistaLocation

Past Weather in Vista — Graph

°F

Vista Temperature Yesterday

Maximum temperature yesterday: 75 °F (at 1:53 PM)
Minimum temperature yesterday: 66 °F (at 1:53 AM)
Average temperature yesterday: 70 °F

High & Low Weather Summary for the Past Weeks

 TemperatureHumidityPressure
High80 °F (Aug 15, 2:53 PM)100% (Aug 16, 6:53 AM)30.04 "Hg (Aug 16, 6:53 AM)
Low63 °F (Aug 23, 5:53 AM)60% (Aug 15, 2:53 PM)29.79 "Hg (Aug 17, 5:53 PM)
Average70 °F82%29.90 "Hg
* Reported Aug 10 4:53 PM — Aug 25 4:53 PM, Vista, Weather by CustomWeather, © 2016

Note: Actual official high and low records may vary slightly from our data, if they occured in-between our weather recording intervals... More about our weather records

Advertising

Vista Weather History for the Previous 24 Hours

Scroll right to see more
 ConditionsComfort  
Time TempWeatherWind HumidityBarometerVisibility
4:53 PM
Thu, Aug 25
68 °FSunny.8 mph76%29.90 "Hg10 mi
3:53 PM68 °FPassing clouds.9 mph76%29.90 "Hg10 mi
2:53 PM69 °FPassing clouds.12 mph73%29.91 "Hg10 mi
1:53 PM70 °FSunny.10 mph73%29.92 "Hg10 mi
12:53 PM70 °FSunny.10 mph73%29.93 "Hg10 mi
11:53 AM70 °FSunny.8 mph76%29.95 "Hg10 mi
10:53 AM70 °FSunny.9 mph76%29.96 "Hg9 mi
9:53 AM70 °FPassing clouds.6 mph76%29.96 "Hg10 mi
8:53 AM69 °FOvercast.No wind76%29.95 "Hg9 mi
7:53 AM68 °FOvercast.5 mph82%29.96 "Hg9 mi
6:53 AM67 °FOvercast.No wind85%29.94 "Hg9 mi
5:53 AM67 °FOvercast.No wind85%29.93 "Hg10 mi
4:53 AM67 °FOvercast.3 mph85%29.93 "Hg10 mi
3:53 AM68 °FOvercast.3 mph84%29.93 "Hg9 mi
2:53 AM68 °FOvercast.No wind87%29.93 "Hg9 mi
1:53 AM68 °FOvercast.No wind87%29.93 "Hg9 mi
12:53 AM68 °FOvercast.No wind87%29.95 "Hg10 mi
11:53 PM
Wed, Aug 24
69 °FOvercast.No wind87%29.95 "Hg9 mi
10:53 PM69 °FOvercast.No wind87%29.96 "Hg9 mi
9:53 PM69 °FPassing clouds.3 mph87%29.96 "Hg10 mi
8:53 PM69 °FPassing clouds.5 mph90%29.95 "Hg9 mi
7:53 PM70 °FSunny.3 mph87%29.93 "Hg10 mi
6:53 PM71 °FSunny.3 mph81%29.92 "Hg10 mi
Weather by CustomWeather, © 2016

See weather overviewHow to use our weather pages